Tracking 27188 objects as of 1-Apr-2023
HD Live streaming from Space Station
objects crossing your sky now

STARLINK-3819

Track STARLINK-3819 now!
10-day predictions
STARLINK-3819 is classified as:


NORAD ID: 52349
Int'l Code: 2022-045U
Perigee: 546.0 km
Apogee: 547.7 km
Inclination: 53.2 °
Period: 95.4 minutes
Semi major axis: 6917 km
RCS: Unknown
Launch date: April 29, 2022
Source: United States (US)
Launch site: AIR FORCE EASTERN TEST RANGE (AFETR)
Your satellite tracking list
Your tracking list is empty




NASA's NSSDC Master Catalog

Two Line Element Set (TLE):
1 52349U 22045U   23090.69448595  .00011377  00000-0  73153-3 0  9991
2 52349  53.2170 340.4746 0001262 102.4607 257.6527 15.08851109 53642
Source of the keplerian elements: AFSPC